This is the latest recevied weather packets stored in our database for station/object K6LCM-13. If no packets are shown the sender has not sent any weather packets the latest 10 day(s).
| Time | Temp. | Humidity | Pressure | Rain* | Wind** | Luminosity | Snow |
|---|---|---|---|---|---|---|---|
| 1777918404 | 17.22° C | 72% | 1015.6 hPa | 0 mm | - | - | - |
| 1777917863 | 17.22° C | 72% | 1015.5 hPa | 0 mm | - | - | - |
| 1777917324 | 17.22° C | 72% | 1015.6 hPa | 0 mm | - | - | - |
| 1777916783 | 16.67° C | 73% | 1015.4 hPa | 0 mm | - | - | - |
| 1777916243 | 17.22° C | 73% | 1015.5 hPa | 0 mm | - | - | - |
| 1777915704 | 17.22° C | 73% | 1015.2 hPa | 0 mm | - | - | - |
| 1777915163 | 17.78° C | 70% | 1015.3 hPa | 0 mm | - | - | - |
| 1777914624 | 17.78° C | 61% | 1015.1 hPa | 0 mm | - | - | - |
| 1777914084 | 17.78° C | 62% | 1015.1 hPa | 0 mm | - | - | - |
| 1777912757 | 16.67° C | 69% | 1015 hPa | 0 mm | - | - | - |
| 1777911677 | 16.11° C | 70% | 1015 hPa | 0 mm | - | - | - |
| 1777911137 | 16.11° C | 73% | 1015 hPa | 0 mm | - | - | - |
| 1777910597 | 15.56° C | 75% | 1015.1 hPa | 0 mm | - | - | - |
| 1777910058 | 15.56° C | 72% | 1015.1 hPa | 0 mm | - | - | - |
| 1777909517 | 15° C | 70% | 1014.7 hPa | 0 mm | - | - | - |
| 1777908977 | 15° C | 69% | 1014.8 hPa | 0 mm | - | - | - |
| 1777907897 | 15° C | 70% | 1014.8 hPa | 0 mm | - | - | - |
| 1777907357 | 14.44° C | 72% | 1014.9 hPa | 0 mm | - | - | - |
| 1777906817 | 13.89° C | 74% | 1014.9 hPa | 0 mm | - | - | - |
| 1777906277 | 13.33° C | 76% | 1014.8 hPa | 0 mm | - | - | - |
| 1777905738 | 12.78° C | 78% | 1014.7 hPa | 0 mm | - | - | - |
| 1777905197 | 12.22° C | 78% | 1014.4 hPa | 0 mm | - | - | - |
| 1777904657 | 11.67° C | 79% | 1014.4 hPa | 0 mm | - | - | - |
| 1777904117 | 11.67° C | 80% | 1014.4 hPa | 0 mm | - | - | - |
| 1777903577 | 11.67° C | 79% | 1014.3 hPa | 0 mm | - | - | - |
* Rain latest hour (hover to see other rain measurements)
** Current wind speed in m/s (hover to see current wind gust speed)